Home   Weather   Missoula   Past weeks

Flag for USA Past Weather in Missoula, Montana, USA — Yesterday and Last 2 Weeks

Now
57 °F

Sunny.


Feels Like: 55 °F
Forecast: 36 / 68 °F
Wind: 10 mph from West

Location: Missoula International Airport

Current Time: Sep 24, 2016 at 8:08:30 PM

Latest Report: Sep 24, 2016 at 6:53 PM


Visibility: 10 mi

Pressure: 30.29 "Hg (26.98 "Hg at 971m altitude)

Humidity: 47%

Dew Point: 37 °F

Location of MissoulaLocation

Past Weather in Missoula — Graph

°F

Missoula Temperature Yesterday

Maximum temperature yesterday: 62 °F (at 4:53 PM)
Minimum temperature yesterday: 51 °F (at 2:53 AM)
Average temperature yesterday: 56 °F

High & Low Weather Summary for the Past Weeks

 TemperatureHumidityPressure
High81 °F (Sep 10, 4:53 PM)100% (Sep 11, 9:53 PM)30.31 "Hg (Sep 11, 9:53 PM)
Low30 °F (Sep 13, 6:53 AM)20% (Sep 10, 3:53 PM)29.85 "Hg (Sep 18, 1:53 AM)
Average54 °F62%30.07 "Hg
* Reported Sep 9 6:53 PM — Sep 24 6:53 PM, Missoula, Weather by CustomWeather, © 2016

Note: Actual official high and low records may vary slightly from our data, if they occured in-between our weather recording intervals... More about our weather records

Advertising

Missoula Weather History for the Previous 24 Hours

Scroll right to see more
 ConditionsComfort  
Time TempWeatherWind HumidityBarometerVisibility
6:53 PM
Sat, Sep 24
57 °FSunny.10 mph47%30.29 "Hg10 mi
5:53 PM61 °FPassing clouds.10 mph41%30.26 "Hg10 mi
4:53 PM63 °FScattered clouds.14 mph35%30.25 "Hg10 mi
3:53 PM64 °FPassing clouds.16 mph32%30.24 "Hg10 mi
2:53 PM63 °FPassing clouds.16 mph34%30.24 "Hg10 mi
1:53 PM63 °FScattered clouds.15 mph37%30.24 "Hg10 mi
12:53 PM61 °FMore clouds than sun.14 mph41%30.24 "Hg10 mi
11:53 AM58 °FOvercast.13 mph50%30.25 "Hg10 mi
10:53 AM56 °FSunny.10 mph58%30.25 "Hg10 mi
9:53 AM53 °FOvercast.9 mph66%30.24 "Hg10 mi
8:53 AM50 °FPartly sunny.10 mph74%30.22 "Hg10 mi
7:53 AM50 °FLight rain. Mostly cloudy.10 mph71%30.21 "Hg10 mi
6:53 AM51 °FOvercast.9 mph66%30.19 "Hg10 mi
5:53 AM51 °FOvercast.6 mph69%30.16 "Hg10 mi
4:53 AM51 °FOvercast.9 mph66%30.14 "Hg10 mi
3:53 AM52 °FOvercast.9 mph64%30.10 "Hg10 mi
2:53 AM52 °FOvercast.13 mph64%30.09 "Hg10 mi
1:53 AM52 °FMostly cloudy.12 mph66%30.07 "Hg10 mi
12:53 AM54 °FOvercast.5 mph64%30.06 "Hg10 mi
11:53 PM
Fri, Sep 23
55 °FOvercast.No wind64%30.03 "Hg10 mi
10:53 PM55 °FOvercast.No wind64%30.02 "Hg10 mi
9:53 PM55 °FOvercast.6 mph64%30.02 "Hg10 mi
8:53 PM56 °FOvercast.7 mph60%30.02 "Hg10 mi
Weather by CustomWeather, © 2016

See weather overviewHow to use our weather pages